OneWeb SL0217

operational
NORAD ID: 48245 Int'l Des: 2021-031 Owner: ONEWEBN Country: UK Constellation: oneweb
LEOCIRCULARPOLARONEWEB_TYPE

Über OneWeb SL0217

Beschreibung wird geladen...

Live-Position

3D-Globus wird geladen...

Nächste Überflüge

Höhenverlauf

Altitude vs Time

uPlot chart will show altitude changes over time

Zweizeiliger Elementsatz

1 48245U 21031AM 26062.18338479 -.00000128 00000-0 -38012-3 0 9999
2 48245 87.9001 310.8414 0001978 85.0081 275.1274 13.14502189234256
Epoch: 3. März 2026 • Age: 26 hours

Aktueller Status

Höhe 1214.4 km
Geschwindigkeit 7.25 km/s
Subsatellitenpunkt -21.01°S, 53.08°W
Startdatum 25. Apr. 2021
Alter 4.8 years
Typ internet

Technische Details

Klassifizierung Payload
Masse 148.00 kg
Trockenmasse 140.00 kg
Gesamtmasse 148.00 kg
Länge 1.30 m
Durchmesser 1.00 m
Spannweite 5.00 m
Form Trapezoid+2 pan
Hersteller ONEWUS
Bus-Typ ARROW
Phasenstatus In Orbit
Besitzer/Staat ONEWEBN/UK

Große Konstellationen

Loading constellations...